Vertical_Velocity
-5 1 -0 -1 -0 1 -4 -6 -3 -2 0 -4 -2 -0 1 -2 2 -7 0 -1 -2 -2 -1 -0 -1 -1 -1 -1 -1 -1 -1 -2 -2 -2 -2 -1 0 0 -0 -1 1 2 -0 1 0 1 -1 -1 -1
-5 2 1 -1 -2 2 -2 -3 1 -0 -1 -1 3 1 1 -1 1 -2 -2 -2 0 -1 -1 -1 -0 -0 -2 -1 0 -1 -1 -1 -3 -2 -2 -0 -0 -1 0 -1 -3 1 1 2 -3 -3 -3 -1 -1
-2 -0 -2 0 -5 0 -3 -5 1 2 0 1 -1 -1 -1 -0 2 -1 -1 -0 -2 -2 -1 0 0 -0 1 0 0 -1 0 1 0 -1 -1 -1 -0 -0 0 0 0 -1 -1 -0 -1 -1 -1 -0 -0
4 -5 2 -2 -3 -3 -1 -4 0 2 0 -0 0 -0 1 -2 0 -2 -1 -1 -1 -1 -1 -1 -1 -1 -1 -0 -1 0 -1 -1 -1 0 -0 0 0 2 1 1 1 1 1 -0 -0 -1 -1 0 2
-0 -2 3 -4 -1 -1 -4 -1 -1 1 -0 -0 0 -1 -2 -1 -1 0 0 -1 -1 -1 -0 -1 -1 0 -0 -1 -0 -0 -0 -1 1 1 1 -1 -0 2 0 0 0 -0 -0 0 1 2 2 2 2
-0 -2 -1 -3 -1 1 -5 -2 -2 -1 -1 0 -2 -3 1 -1 -1 -0 2 0 0 1 -0 -0 -0 0 -0 0 1 1 1 -0 0 -1 -0 1 1 -0 1 1 1 2 2 2 1 1 1 0 1
-0 3 2 1 -0 1 -3 -1 -0 -2 0 -1 -1 -1 -2 -3 -3 -3 -1 -1 2 1 1 1 -1 1 0 -1 0 1 0 1 -0 -1 0 1 2 1 2 1 1 1 1 1 2 2 2 1 1
2 4 -4 -0 2 -1 0 0 -0 -1 0 0 -5 0 -0 -1 -1 0 2 0 -0 1 1 1 -0 -0 0 0 0 1 1 2 1 1 0 -0 0 1 1 1 1 1 0 0 -0 0 0 1 0
0 -3 -1 2 -2 3 -0 -1 3 1 -6 5 -0 -4 -1 -1 1 1 1 1 -2 2 0 0 1 -0 -0 -0 -0 2 2 1 1 1 -1 0 -0 0 -0 1 0 0 0 -1 -1 -1 -0 -1 -1
-3 -1 4 -2 -5 -0 -1 -1 2 -2 0 2 0 -1 -0 1 0 0 1 0 1 -1 0 1 -1 -1 -2 -1 1 0 1 2 0 0 1 -2 -0 -1 -1 0 -1 1 0 -0 -0 -0 -0 -0 -0
-0 8 -1 -1 2 2 -0 -1 -0 -1 2 -0 3 -6 -1 -1 0 0 -0 1 1 2 1 2 0 -1 0 -1 1 1 0 2 1 1 1 -0 0 0 2 1 0 -0 -1 0 0 -0 -1 -1 -1
1 2 -6 -1 4 2 1 -4 -1 -0 -0 2 4 2 0 -0 1 1 1 -0 -1 -0 2 2 1 1 1 -1 0 -1 1 -0 1 1 1 2 -1 -1 -0 -2 -1 -2 -1 -2 -2 -2 -1 -1 -1
-0 3 -7 -2 0 17 -4 3 -7 -2 4 1 -0 -1 1 1 0 1 1 0 -1 0 -1 1 1 -0 1 1 1 -1 -0 -1 -0 0 -1 -1 0 -1 -1 -2 -1 -1 -1 -1 -0 -1 -1 -1 -0
7 5 -6 2 -4 3 0 7 -4 3 7 3 -1 0 2 0 -1 2 1 1 0 -1 -1 -1 -1 0 -2 -1 0 1 1 -1 -1 0 -2 -2 -2 -2 -0 -0 -0 0 1 1 0 0 0 -1 -1
1 -1 -5 5 -4 -3 0 -3 -2 -0 -1 1 -0 -3 2 1 1 -0 0 -0 -0 -0 -1 0 -0 0 -1 -2 -1 0 -0 -1 -0 -1 1 1 0 0 -1 0 -1 0 -1 -1 -1 -1 -1 -0 -0
-3 -1 -4 3 -0 -6 -1 8 -5 7 -4 3 2 -2 -2 2 -1 1 2 -3 1 -3 1 0 0 -1 -0 0 -2 -1 -1 0 0 -0 -2 -1 -1 -1 -1 -2 -2 -0 -1 -1 -0 -0 0 0 0
-4 2 3 -0 -1 -5 -1 8 -7 4 -1 -5 -1 4 -1 -2 2 2 2 1 2 -0 -1 -0 1 -0 0 -1 0 -0 -1 -1 -1 -1 -1 -1 -1 -2 -2 -1 -1 -0 1 0 1 1 -0 -1 -2
-5 5 -2 -3 1 2 -1 -0 1 4 1 2 -2 -1 4 1 -2 0 1 2 1 0 1 0 1 0 1 -0 1 0 0 -0 -1 -1 -1 -1 -2 -0 0 -0 -1 -2 -0 -1 -0 1 -0 0 -1
7 3 8 13 10 -0 1 -2 9 1 -0 1 2 3 -1 2 4 2 2 -1 -2 -2 -1 0 0 0 -0 0 0 0 2 1 -0 -1 -1 -0 -2 0 -1 -1 -0 1 -0 1 -0 -1 -1 0 -0
1 -2 -0 0 0 -1 -3 1 5 -2 -1 -6 -1 -3 1 -2 -1 1 1 0 3 2 0 0 -0 0 -0 -1 0 -1 -0 -1 -1 -3 1 -2 -1 -3 1 1 -1 -3 -0 -0 1 0 1 1 1
1 2 2 5 5 -1 1 -6 -6 3 -1 0 -2 -2 1 1 -1 -1 -0 -1 -1 1 3 1 -1 1 1 1 2 1 -0 -1 -0 -0 2 -4 -0 0 1 0 -1 -1 -0 -1 -1 -2 -2 -4 -1
-2 9 1 -2 0 1 4 -2 -6 3 3 -3 0 -1 -1 1 2 0 1 -1 -1 2 1 2 -2 1 1 -0 1 0 1 -1 1 -1 -2 -3 -1 0 -1 -2 -1 -1 -1 -2 -2 -3 -2 -2 -1
16 -2 3 4 2 1 -4 -10 8 -4 -8 1 2 -3 0 1 1 3 2 2 1 -0 1 1 2 1 1 -0 2 2 3 4 -1 -1 1 -1 0 -1 0 -3 1 -1 -1 -1 -0 -0 -0 -1 -2
12 2 -1 1 -2 -16 3 -4 2 -10 21 1 -8 -2 -1 2 1 1 0 -1 -1 0 0 -1 1 1 1 0 -1 -2 0 1 -2 0 1 0 -1 -0 3 0 -0 0 -0 -0 -0 -1 -1 0 0
-2 1 -4 -7 -16 -10 4 -13 13 -0 -3 2 0 -2 0 -1 -1 -0 -0 -1 -0 -0 0 -1 -1 -1 -3 -2 -3 -3 -1 -2 -2 -3 -0 -0 -0 -1 -0 -1 -1 -1 -1 -0 -0 -0 -0 -1 -2
1 11 -10 -10 -8 -1 -4 -27 -0 -3 3 3 -6 -5 -2 -1 2 1 1 1 -0 -1 -1 -0 -1 -0 -0 -2 -1 0 1 -1 1 3 3 0 0 -0 0 0 1 0 -1 -1 -1 -0 -1 -1 -1
-5 -46 20 7 -6 -5 4 -8 0 -2 0 1 -1 1 1 3 1 -3 -2 -1 -2 -1 0 -0 -0 1 0 1 1 -0 1 1 1 -0 -0 -0 -1 -1 -1 -1 -1 -2 -0 0 -1 -1 -1 -0 -0
-30 63 -15 -20 -15 -5 -5 -7 -4 0 6 4 8 7 0 -0 -1 -0 0 0 1 0 -1 -1 -1 -0 1 -1 -1 -1 -2 -1 -0 -1 -3 -3 -2 -1 -2 -3 -3 -1 -1 -1 -0 0 -0 -1 -0
4 -26 -19 18 1 -8 -2 -7 12 5 4 5 3 -1 0 -0 0 1 1 3 2 -1 0 1 2 1 1 1 -0 0 -0 -0 -1 -2 -1 0 -1 -3 -3 -3 -2 1 2 0 1 1 0 -2 -3
8 5 10 -17 -28 -10 -8 -9 -3 1 5 3 7 5 4 3 0 -0 -2 -0 -1 1 2 2 2 2 -1 1 -2 2 0 0 -0 -1 -1 -1 -1 -2 -0 -2 -2 -1 1 -1 -0 -2 -2 -2 -2
Height
5823 5824 5825 5827 5830 5829 5829 5830 5830 5835 5837 5839 5841 5844 5846 5846 5848 5851 5851 5852 5853 5853 5854 5855 5856 5855 5855 5855 5854 5853 5851 5850 5848 5846 5846 5846 5847 5850 5852 5853 5856 5858 5859 5861 5862 5863 5864 5866 5867
5822 5823 5825 5827 5828 5828 5831 5831 5835 5837 5840 5841 5844 5845 5848 5849 5850 5852 5854 5855 5855 5856 5857 5858 5858 5858 5858 5857 5857 5856 5854 5853 5851 5850 5848 5847 5848 5850 5852 5855 5856 5859 5860 5861 5863 5864 5865 5866 5867
5820 5822 5824 5826 5825 5827 5829 5831 5836 5839 5841 5842 5845 5848 5850 5852 5853 5854 5856 5857 5857 5858 5859 5860 5860 5861 5861 5860 5860 5859 5857 5856 5855 5853 5852 5851 5851 5852 5854 5856 5858 5860 5861 5862 5864 5865 5865 5866 5867
5816 5822 5824 5825 5826 5827 5829 5832 5836 5839 5842 5844 5846 5850 5852 5853 5855 5857 5858 5859 5859 5860 5861 5862 5862 5863 5863 5863 5862 5861 5860 5859 5858 5857 5857 5856 5855 5855 5856 5858 5859 5860 5862 5863 5864 5865 5866 5867 5868
5813 5819 5821 5823 5826 5827 5829 5832 5836 5840 5843 5845 5848 5851 5853 5855 5857 5858 5860 5860 5861 5862 5863 5863 5864 5864 5864 5865 5864 5864 5863 5862 5862 5861 5860 5860 5859 5859 5859 5860 5861 5862 5863 5864 5865 5866 5867 5868 5869
5812 5817 5819 5822 5826 5828 5829 5833 5837 5840 5843 5846 5849 5852 5854 5856 5857 5859 5860 5861 5862 5863 5864 5864 5865 5865 5865 5865 5866 5865 5865 5865 5865 5864 5864 5863 5863 5863 5863 5863 5864 5864 5865 5866 5867 5868 5868 5868 5869
5810 5816 5818 5822 5825 5828 5829 5833 5837 5840 5843 5846 5849 5852 5854 5856 5857 5859 5861 5861 5862 5863 5864 5865 5865 5866 5866 5866 5867 5867 5867 5867 5867 5867 5866 5866 5865 5866 5866 5866 5866 5867 5867 5867 5868 5868 5869 5869 5870
5810 5812 5815 5819 5824 5826 5829 5833 5837 5841 5844 5847 5849 5852 5854 5855 5857 5859 5860 5861 5862 5863 5864 5864 5865 5865 5866 5866 5867 5868 5868 5868 5868 5868 5868 5867 5867 5867 5867 5867 5867 5867 5867 5868 5868 5868 5868 5868 5869
5808 5812 5814 5819 5823 5826 5828 5832 5836 5839 5842 5846 5848 5850 5852 5854 5856 5858 5860 5861 5862 5863 5863 5864 5864 5865 5866 5867 5867 5868 5868 5869 5869 5869 5868 5868 5868 5868 5868 5868 5868 5868 5868 5868 5868 5868 5868 5868 5868
5806 5812 5814 5816 5821 5825 5827 5831 5834 5838 5842 5845 5847 5849 5851 5853 5855 5857 5858 5859 5861 5861 5862 5864 5864 5865 5866 5866 5867 5867 5868 5869 5869 5869 5869 5869 5869 5869 5868 5868 5869 5868 5868 5868 5868 5867 5867 5867 5866
5804 5810 5812 5811 5817 5824 5826 5829 5833 5836 5840 5844 5845 5847 5850 5852 5853 5855 5856 5858 5858 5860 5861 5862 5863 5864 5865 5866 5866 5866 5867 5868 5868 5869 5869 5869 5869 5869 5868 5868 5868 5868 5868 5867 5867 5866 5866 5865 5865
5799 5803 5807 5810 5814 5820 5824 5826 5830 5834 5837 5840 5843 5845 5847 5849 5851 5853 5854 5855 5856 5857 5858 5859 5860 5861 5863 5864 5865 5865 5866 5867 5867 5868 5868 5868 5868 5868 5868 5868 5868 5867 5867 5866 5866 5866 5865 5865 5864
5795 5797 5801 5808 5811 5817 5820 5824 5826 5831 5834 5837 5839 5841 5844 5846 5848 5850 5852 5852 5853 5854 5855 5856 5857 5858 5860 5861 5862 5863 5864 5865 5866 5866 5867 5867 5867 5867 5867 5867 5867 5867 5866 5866 5865 5864 5864 5863 5862
5789 5791 5796 5804 5806 5809 5815 5820 5822 5827 5831 5834 5835 5838 5841 5843 5845 5847 5848 5849 5850 5851 5852 5853 5854 5856 5857 5858 5860 5861 5862 5863 5864 5865 5865 5865 5865 5866 5866 5866 5865 5865 5864 5863 5863 5862 5861 5860 5860
5781 5785 5789 5796 5801 5804 5810 5813 5818 5821 5825 5830 5832 5834 5838 5840 5842 5844 5846 5846 5847 5848 5849 5850 5851 5853 5854 5855 5857 5858 5860 5861 5862 5862 5863 5863 5863 5863 5863 5863 5863 5862 5862 5861 5860 5859 5859 5858 5857
5771 5776 5783 5791 5795 5798 5803 5812 5813 5817 5819 5824 5828 5830 5833 5836 5838 5840 5841 5841 5844 5844 5846 5848 5849 5850 5851 5852 5853 5855 5856 5858 5858 5859 5860 5861 5861 5861 5861 5860 5860 5860 5860 5859 5858 5857 5856 5855 5853
5758 5767 5779 5782 5788 5791 5797 5806 5808 5812 5814 5816 5822 5826 5827 5830 5833 5836 5838 5838 5840 5840 5842 5843 5845 5847 5848 5849 5850 5851 5853 5854 5855 5856 5857 5857 5858 5858 5858 5858 5858 5857 5856 5855 5854 5852 5851 5850 5849
5757 5762 5774 5777 5783 5786 5791 5799 5802 5806 5810 5812 5814 5818 5823 5825 5828 5831 5832 5834 5835 5836 5837 5839 5841 5843 5844 5846 5847 5848 5849 5850 5851 5852 5853 5853 5853 5854 5854 5854 5853 5853 5852 5850 5849 5848 5847 5846 5844
5752 5757 5765 5773 5776 5778 5785 5791 5797 5800 5802 5806 5810 5814 5815 5819 5823 5826 5827 5828 5830 5831 5832 5835 5837 5839 5841 5842 5843 5844 5845 5846 5847 5848 5849 5849 5849 5850 5849 5849 5849 5848 5847 5845 5844 5842 5841 5840 5839
5743 5748 5752 5760 5767 5772 5776 5782 5787 5792 5795 5798 5802 5806 5808 5812 5816 5819 5821 5823 5826 5828 5829 5830 5832 5834 5836 5838 5840 5841 5842 5843 5844 5844 5845 5845 5845 5845 5845 5844 5843 5842 5842 5840 5838 5837 5835 5835 5833
5732 5740 5743 5751 5758 5762 5768 5770 5774 5780 5783 5788 5794 5799 5802 5806 5808 5811 5814 5817 5820 5823 5826 5827 5828 5830 5831 5833 5834 5836 5837 5838 5839 5839 5840 5840 5840 5840 5840 5839 5837 5836 5836 5834 5832 5830 5828 5826 5826
5725 5734 5738 5742 5747 5754 5761 5762 5764 5773 5777 5782 5786 5792 5797 5798 5802 5806 5809 5811 5814 5817 5820 5822 5823 5825 5827 5828 5830 5831 5833 5834 5834 5834 5835 5835 5835 5835 5834 5833 5832 5830 5828 5826 5824 5821 5820 5816 5813
5719 5726 5731 5736 5739 5744 5750 5753 5759 5763 5768 5774 5779 5784 5789 5792 5796 5800 5804 5806 5808 5811 5814 5817 5819 5821 5823 5825 5826 5828 5829 5829 5828 5828 5829 5829 5829 5828 5827 5825 5824 5822 5821 5818 5816 5814 5810 5808 5804
5710 5718 5721 5727 5729 5730 5740 5746 5749 5756 5764 5769 5772 5777 5782 5787 5791 5794 5798 5800 5804 5807 5810 5812 5815 5817 5819 5820 5821 5823 5824 5824 5823 5824 5824 5823 5821 5821 5820 5818 5816 5814 5812 5809 5806 5803 5800 5797 5793
5697 5707 5710 5713 5715 5720 5730 5735 5744 5750 5756 5764 5767 5772 5778 5781 5785 5789 5792 5795 5799 5801 5805 5807 5810 5812 5813 5815 5816 5817 5818 5818 5817 5817 5817 5816 5814 5813 5811 5809 5807 5805 5802 5799 5796 5792 5789 5786 5782
5687 5696 5698 5698 5705 5716 5721 5724 5736 5745 5750 5757 5760 5765 5770 5774 5777 5782 5786 5790 5793 5796 5799 5801 5803 5805 5807 5808 5809 5809 5811 5810 5811 5810 5809 5808 5807 5805 5804 5801 5799 5796 5792 5789 5785 5781 5778 5774 5771
5676 5684 5698 5699 5703 5711 5716 5722 5730 5737 5743 5750 5755 5759 5764 5768 5771 5775 5779 5783 5787 5789 5792 5794 5796 5797 5799 5800 5801 5802 5803 5803 5802 5802 5801 5800 5798 5796 5795 5792 5789 5786 5782 5777 5774 5770 5766 5763 5759
5668 5684 5685 5687 5691 5699 5706 5712 5722 5730 5739 5745 5750 5755 5757 5761 5765 5769 5773 5776 5779 5782 5784 5786 5788 5790 5792 5793 5794 5794 5793 5794 5793 5792 5791 5790 5788 5787 5784 5782 5779 5775 5771 5767 5762 5758 5755 5751 5747
5658 5663 5672 5682 5687 5693 5702 5707 5720 5724 5730 5736 5743 5747 5751 5754 5757 5761 5765 5769 5772 5774 5777 5780 5781 5783 5784 5784 5785 5785 5785 5785 5784 5783 5781 5779 5777 5776 5773 5771 5767 5762 5758 5754 5750 5747 5743 5739 5734
5650 5660 5668 5671 5677 5683 5691 5699 5711 5718 5723 5728 5735 5739 5742 5747 5750 5753 5756 5760 5763 5766 5769 5772 5773 5774 5775 5776 5776 5776 5775 5775 5774 5773 5771 5769 5767 5764 5762 5759 5755 5750 5746 5742 5739 5735 5731 5726 5721